| time (UTC) | temp F | wind direction | speed MPH | gust MPH | rain 1hr in | rain 24hr in | rain mn in | humidity % | barometer mb |
| 20260901171558 | 63 | 221 | 20.0 | 26.0 | 0.00 | 0.00 | 0.00 | 62 | 1004.8 |
| 20260901170106 | 63 | 237 | 20.0 | 28.0 | 0.00 | 0.00 | 0.00 | 63 | 1004.8 |
| 20260901164606 | 62 | 220 | 18.0 | 25.0 | 0.00 | 0.00 | 0.00 | 65 | 1005.0 |
| 20260901163056 | 61 | 240 | 20.0 | 27.0 | 0.00 | 0.00 | 0.00 | 66 | 1005.0 |
| 20260901161555 | 61 | 240 | 21.0 | 29.0 | 0.00 | 0.00 | 0.00 | 67 | 1004.9 |
| 20260901160056 | 61 | 226 | 21.0 | 29.0 | 0.00 | 0.00 | 0.00 | 68 | 1004.9 |
| 20260901154552 | 61 | 227 | 23.0 | 29.0 | 0.00 | 0.00 | 0.00 | 68 | 1004.8 |
| 20260901153050 | 61 | 238 | 19.0 | 24.0 | 0.00 | 0.00 | 0.00 | 68 | 1004.6 |
| 20260901151550 | 60 | 236 | 19.0 | 25.0 | 0.00 | 0.00 | 0.00 | 69 | 1004.4 |
| 20260901150049 | 61 | 230 | 21.0 | 26.0 | 0.00 | 0.00 | 0.00 | 68 | 1004.3 |
| 20260901144548 | 60 | 229 | 19.0 | 24.0 | 0.00 | 0.00 | 0.00 | 68 | 1004.3 |
| 20260901143049 | 60 | 245 | 19.0 | 26.0 | 0.00 | 0.00 | 0.00 | 69 | 1004.4 |
| 20260901141547 | 60 | 244 | 18.0 | 26.0 | 0.00 | 0.00 | 0.00 | 70 | 1004.4 |
| 20260901140058 | 60 | 240 | 19.0 | 28.0 | 0.00 | 0.00 | 0.00 | 69 | 1004.4 |
| 20260901134605 | 60 | 229 | 19.0 | 28.0 | 0.00 | 0.00 | 0.00 | 69 | 1004.3 |
| 20260901133050 | 60 | 231 | 20.0 | 27.0 | 0.00 | 0.00 | 0.00 | 69 | 1004.2 |
| 20260901131544 | 61 | 228 | 17.0 | 24.0 | 0.00 | 0.00 | 0.00 | 69 | 1004.0 |
| 20260901130044 | 61 | 231 | 17.0 | 22.0 | 0.00 | 0.00 | 0.00 | 69 | 1003.9 |
| 20260901124542 | 61 | 245 | 17.0 | 24.0 | 0.00 | 0.00 | 0.00 | 69 | 1003.7 |
| 20260901123037 | 61 | 238 | 18.0 | 23.0 | 0.00 | 0.00 | 0.00 | 68 | 1003.8 |
| 20260901121535 | 61 | 225 | 16.0 | 22.0 | 0.00 | 0.00 | 0.00 | 67 | 1003.8 |
| 20260901120048 | 61 | 232 | 16.0 | 23.0 | 0.00 | 0.00 | 0.00 | 65 | 1003.9 |
| 20260901114531 | 62 | 245 | 16.0 | 22.0 | 0.00 | 0.00 | 0.00 | 64 | 1004.0 |
| 20260901113033 | 62 | 223 | 15.0 | 19.0 | 0.00 | 0.00 | 0.00 | 63 | 1004.0 |
| 20260901111529 | 62 | 233 | 15.0 | 20.0 | 0.00 | 0.00 | 0.00 | 63 | 1003.9 |
| 20260901110029 | 62 | 240 | 14.0 | 19.0 | 0.00 | 0.00 | 0.00 | 61 | 1004.0 |
| 20260901104526 | 62 | 231 | 13.0 | 19.0 | 0.00 | 0.00 | 0.00 | 58 | 1004.1 |
| 20260901103026 | 62 | 238 | 15.0 | 19.0 | 0.00 | 0.00 | 0.00 | 55 | 1004.1 |
| 20260901101517 | 63 | 228 | 12.0 | 18.0 | 0.00 | 0.00 | 0.00 | 50 | 1004.1 |
| 20260901100015 | 63 | 236 | 11.0 | 16.0 | 0.00 | 0.00 | 0.00 | 48 | 1004.1 |
| 20260901094515 | 65 | 244 | 11.0 | 16.0 | 0.00 | 0.00 | 0.00 | 46 | 1004.0 |
| 20260901093012 | 65 | 233 | 10.0 | 15.0 | 0.00 | 0.00 | 0.00 | 45 | 1004.1 |
| 20260901091511 | 65 | 227 | 11.0 | 17.0 | 0.00 | 0.00 | 0.00 | 45 | 1004.3 |
| 20260901090011 | 65 | 229 | 9.0 | 15.0 | 0.00 | 0.00 | 0.00 | 45 | 1004.4 |
| 20260901084508 | 64 | 228 | 10.0 | 14.0 | 0.00 | 0.00 | 0.00 | 45 | 1004.6 |
| 20260901083010 | 64 | 222 | 10.0 | 14.0 | 0.00 | 0.00 | 0.00 | 44 | 1004.5 |
| 20260901081505 | 64 | 225 | 10.0 | 13.0 | 0.00 | 0.00 | 0.00 | 43 | 1004.6 |
| 20260901080005 | 64 | 220 | 11.0 | 14.0 | 0.00 | 0.00 | 0.00 | 40 | 1004.6 |
| 20260901074506 | 63 | 217 | 11.0 | 13.0 | 0.00 | 0.00 | 0.00 | 39 | 1004.6 |
| 20260901073100 | 64 | 225 | 8.0 | 10.0 | 0.00 | 0.00 | 0.00 | 38 | 1004.5 |
| 20260901071557 | 66 | 226 | 9.0 | 11.0 | 0.00 | 0.00 | 0.00 | 37 | 1004.6 |
| 20260901070059 | 66 | 225 | 10.0 | 12.0 | 0.00 | 0.00 | 0.00 | 35 | 1004.6 |
| 20260901064555 | 67 | 239 | 9.0 | 11.0 | 0.00 | 0.00 | 0.00 | 34 | 1004.6 |
| 20260901063053 | 70 | 251 | 8.0 | 10.0 | 0.00 | 0.00 | 0.00 | 32 | 1004.8 |
| 20260901061553 | 71 | 251 | 8.0 | 10.0 | 0.00 | 0.00 | 0.00 | 32 | 1004.8 |
| 20260901060053 | 64 | 246 | 5.0 | 7.0 | 0.00 | 0.00 | 0.00 | 40 | 1005.0 |
| 20260901054553 | 65 | 209 | 5.0 | 7.0 | 0.00 | 0.00 | 0.00 | 38 | 1005.2 |
| 20260901053118 | 64 | 209 | 5.0 | 7.0 | 0.00 | 0.00 | 0.00 | 39 | 1005.2 |
| 20260901051605 | 63 | 192 | 3.0 | 5.0 | 0.00 | 0.00 | 0.00 | 40 | 1005.2 |
| 20260901050054 | 63 | 180 | 2.0 | 4.0 | 0.00 | 0.00 | 0.00 | 39 | 1005.2 |
| 20260901044604 | 67 | 191 | 3.0 | 6.0 | 0.00 | 0.00 | 0.00 | 35 | 1005.4 |
| 20260901043051 | 65 | 202 | 3.0 | 5.0 | 0.00 | 0.00 | 0.00 | 35 | 1005.2 |
| 20260901041550 | 69 | 205 | 5.0 | 6.0 | 0.00 | 0.00 | 0.00 | 33 | 1005.1 |
| 20260901040107 | 66 | 178 | 0.0 | 3.0 | 0.00 | 0.00 | 0.00 | 34 | 1005.0 |
| 20260901034605 | 68 | 122 | 0.0 | 4.0 | 0.00 | 0.00 | 0.00 | 31 | 1005.0 |
| 20260901033049 | 68 | 120 | 1.0 | 3.0 | 0.00 | 0.00 | 0.00 | 31 | 1004.8 |
| 20260901031548 | 70 | 107 | 3.0 | 5.0 | 0.00 | 0.00 | 0.00 | 30 | 1004.7 |
| 20260901030048 | 71 | 103 | 3.0 | 6.0 | 0.00 | 0.00 | 0.00 | 29 | 1004.7 |
| 20260901024552 | 73 | 100 | 4.0 | 6.0 | 0.00 | 0.00 | 0.00 | 28 | 1004.7 |
| 20260901023059 | 74 | 91 | 4.0 | 9.0 | 0.00 | 0.00 | 0.00 | 27 | 1004.6 |
| 20260901021552 | 76 | 92 | 8.0 | 10.0 | 0.00 | 0.00 | 0.00 | 26 | 1004.6 |
| 20260901020046 | 79 | 84 | 10.0 | 15.0 | 0.00 | 0.00 | 0.00 | 24 | 1004.6 |
| 20260901014552 | 80 | 69 | 10.0 | 16.0 | 0.00 | 0.00 | 0.00 | 24 | 1004.6 |
| 20260901013045 | 80 | 65 | 12.0 | 16.0 | 0.00 | 0.00 | 0.00 | 24 | 1004.6 |
| 20260901011543 | 81 | 78 | 13.0 | 18.0 | 0.00 | 0.00 | 0.00 | 24 | 1004.7 |
| 20260901010043 | 81 | 86 | 11.0 | 17.0 | 0.00 | 0.00 | 0.00 | 24 | 1004.6 |
| 20260901004541 | 81 | 76 | 11.0 | 18.0 | 0.00 | 0.00 | 0.00 | 23 | 1004.9 |
| 20260901003041 | 81 | 77 | 13.0 | 21.0 | 0.00 | 0.00 | 0.00 | 23 | 1005.0 |
| 20260901001540 | 82 | 74 | 10.0 | 21.0 | 0.00 | 0.00 | 0.00 | 22 | 1005.2 |
| 20260901000035 | 82 | 67 | 13.0 | 17.0 | 0.00 | 0.00 | 0.00 | 22 | 1005.5 |
| 20260831234533 | 81 | 64 | 13.0 | 19.0 | 0.00 | 0.00 | 0.00 | 22 | 1005.8 |
| 20260831233031 | 81 | 49 | 11.0 | 16.0 | 0.00 | 0.00 | 0.00 | 23 | 1005.9 |
| 20260831231530 | 81 | 61 | 9.0 | 16.0 | 0.00 | 0.00 | 0.00 | 23 | 1006.0 |
| 20260831230028 | 81 | 59 | 14.0 | 18.0 | 0.00 | 0.00 | 0.00 | 23 | 1006.3 |
| 20260831224525 | 80 | 55 | 11.0 | 17.0 | 0.00 | 0.00 | 0.00 | 24 | 1006.6 |
| 20260831223025 | 80 | 62 | 11.0 | 17.0 | 0.00 | 0.00 | 0.00 | 23 | 1006.8 |
| 20260831221523 | 80 | 60 | 11.0 | 16.0 | 0.00 | 0.00 | 0.00 | 23 | 1006.8 |
| 20260831220018 | 79 | 44 | 14.0 | 19.0 | 0.00 | 0.00 | 0.00 | 24 | 1007.1 |
| 20260831214516 | 78 | 67 | 11.0 | 19.0 | 0.00 | 0.00 | 0.00 | 25 | 1007.4 |
| 20260831213014 | 78 | 16 | 13.0 | 18.0 | 0.00 | 0.00 | 0.00 | 25 | 1007.5 |
| 20260831211514 | 77 | 53 | 9.0 | 19.0 | 0.00 | 0.00 | 0.00 | 26 | 1007.8 |
| 20260831210009 | 77 | 94 | 8.0 | 16.0 | 0.00 | 0.00 | 0.00 | 26 | 1008.1 |
| 20260831204506 | 76 | 72 | 11.0 | 19.0 | 0.00 | 0.00 | 0.00 | 26 | 1008.3 |
| 20260831203003 | 76 | 91 | 11.0 | 21.0 | 0.00 | 0.00 | 0.00 | 26 | 1008.6 |
| 20260831201601 | 76 | 60 | 12.0 | 18.0 | 0.00 | 0.00 | 0.00 | 25 | 1008.9 |
| 20260831200058 | 75 | 61 | 13.0 | 19.0 | 0.00 | 0.00 | 0.00 | 26 | 1009.0 |
| 20260831194556 | 74 | 55 | 8.0 | 17.0 | 0.00 | 0.00 | 0.00 | 28 | 1009.2 |
| 20260831193053 | 73 | 28 | 11.0 | 18.0 | 0.00 | 0.00 | 0.00 | 28 | 1009.4 |
| 20260831191550 | 72 | 55 | 9.0 | 18.0 | 0.00 | 0.00 | 0.00 | 31 | 1009.7 |
| 20260831190104 | 72 | 66 | 8.0 | 15.0 | 0.00 | 0.00 | 0.00 | 32 | 1010.1 |
| 20260831184544 | 71 | 65 | 12.0 | 15.0 | 0.00 | 0.00 | 0.00 | 33 | 1010.3 |
| 20260831183041 | 71 | 36 | 10.0 | 16.0 | 0.00 | 0.00 | 0.00 | 34 | 1010.6 |
| 20260831181538 | 70 | 42 | 8.0 | 13.0 | 0.00 | 0.00 | 0.00 | 35 | 1010.8 |
| 20260831180043 | 69 | 57 | 10.0 | 14.0 | 0.00 | 0.00 | 0.00 | 37 | 1011.1 |
| 20260831174537 | 67 | 34 | 9.0 | 14.0 | 0.00 | 0.00 | 0.00 | 39 | 1011.1 |
| 20260831173027 | 66 | 63 | 6.0 | 12.0 | 0.00 | 0.00 | 0.00 | 42 | 1011.1 |